KLM1206 ENGM-EHAM

Flight info

Callsign KLM1206
Flight time 1h 28m
Altitude 36000
Route VIPPA DCT KUGAL DCT EEL DCT BLUFA
Aircraft A321/M-SDE3FGHIRWY/LB1

Departure

Time 2026-05-07 18:37
Airport Oslo-Gardermoen International Airport (ENGM)

Arrival

Time 2026-05-07 20:05
Airport Amsterdam Airport Schiphol (EHAM)
Time Latitude Longitude Altitude Speed Heading
2026-05-07 17:57 60.19309 11.10498 682 ft 0 kts 17°
2026-05-07 18:27 60.19301 11.10491 683 ft 4 kts 358°
2026-05-07 18:28 60.19282 11.10491 680 ft 4 kts 16°
2026-05-07 18:28 60.19264 11.10465 683 ft 4 kts 76°
2026-05-07 18:28 60.19264 11.10434 677 ft 0 kts 107°
2026-05-07 18:32 60.19258 11.10470 681 ft 4 kts 106°
2026-05-07 18:32 60.19245 11.10566 679 ft 13 kts 106°
2026-05-07 18:32 60.19213 11.10791 683 ft 17 kts 105°
2026-05-07 18:33 60.19182 11.11018 683 ft 16 kts 105°
2026-05-07 18:33 60.19209 11.11162 683 ft 11 kts 19°
2026-05-07 18:33 60.19287 11.11207 683 ft 15 kts 16°
2026-05-07 18:33 60.19409 11.11279 684 ft 20 kts 17°
2026-05-07 18:34 60.19539 11.11351 685 ft 21 kts 15°
2026-05-07 18:34 60.19674 11.11430 682 ft 20 kts 16°
2026-05-07 18:34 60.19802 11.11504 682 ft 17 kts 16°
2026-05-07 18:34 60.19908 11.11564 687 ft 15 kts 15°
2026-05-07 18:35 60.20011 11.11624 685 ft 18 kts 16°
2026-05-07 18:35 60.20132 11.11697 685 ft 17 kts 17°
2026-05-07 18:35 60.20163 11.11870 689 ft 14 kts 105°
2026-05-07 18:35 60.20138 11.12056 682 ft 13 kts 105°
2026-05-07 18:36 60.20098 11.12210 682 ft 12 kts 149°
2026-05-07 18:36 60.19987 11.12169 684 ft 26 kts 196°
2026-05-07 18:36 60.19649 11.11975 688 ft 83 kts 196°
2026-05-07 18:36 60.18894 11.11539 682 ft 140 kts 196°
2026-05-07 18:37 60.17820 11.10920 777 ft 173 kts 194°
2026-05-07 18:37 60.16705 11.10274 1520 ft 163 kts 195°
2026-05-07 18:37 60.15614 11.09634 2061 ft 169 kts 196°
2026-05-07 18:37 60.14430 11.08941 2384 ft 182 kts 195°
2026-05-07 18:38 60.13206 11.08267 2926 ft 182 kts 193°
2026-05-07 18:38 60.11958 11.08034 3463 ft 183 kts 182°
2026-05-07 18:38 60.10698 11.07847 4004 ft 182 kts 186°
2026-05-07 18:38 60.09439 11.07531 4477 ft 184 kts 187°
2026-05-07 18:39 60.08154 11.07202 4921 ft 188 kts 187°
2026-05-07 18:39 60.06845 11.06903 5327 ft 192 kts 187°
2026-05-07 18:39 60.05480 11.06489 5547 ft 205 kts 196°
2026-05-07 18:39 60.04117 11.05428 5801 ft 215 kts 201°
2026-05-07 18:40 60.02682 11.04342 6064 ft 224 kts 200°
2026-05-07 18:40 60.01187 11.03212 6284 ft 237 kts 202°
2026-05-07 18:40 59.99573 11.01932 6413 ft 263 kts 202°
2026-05-07 18:40 59.97834 11.00545 6984 ft 273 kts 202°
2026-05-07 18:41 59.96058 10.99129 7756 ft 276 kts 202°
2026-05-07 18:41 59.94293 10.97732 8574 ft 277 kts 202°
2026-05-07 18:41 59.92470 10.96297 9412 ft 279 kts 202°
2026-05-07 18:41 59.90661 10.94873 10210 ft 281 kts 203°
2026-05-07 18:42 59.88792 10.93404 10547 ft 299 kts 203°
2026-05-07 18:42 59.86784 10.91824 10725 ft 322 kts 203°
2026-05-07 18:42 59.84664 10.90158 11231 ft 331 kts 203°
2026-05-07 18:42 59.82509 10.88471 11913 ft 335 kts 204°
2026-05-07 18:43 59.80355 10.86791 12612 ft 338 kts 204°
2026-05-07 18:43 59.78147 10.85074 13319 ft 342 kts 204°
2026-05-07 18:43 59.75925 10.83347 14008 ft 345 kts 205°
2026-05-07 18:43 59.73680 10.81605 14631 ft 348 kts 205°
2026-05-07 18:44 59.71414 10.79850 15241 ft 351 kts 205°
2026-05-07 18:44 59.69125 10.78079 15866 ft 354 kts 205°
2026-05-07 18:44 59.66819 10.76297 16478 ft 357 kts 205°
2026-05-07 18:44 59.64495 10.74504 17093 ft 361 kts 205°
2026-05-07 18:45 59.62147 10.72697 17709 ft 364 kts 205°
2026-05-07 18:45 59.59778 10.70880 18299 ft 367 kts 205°
2026-05-07 18:45 59.57389 10.69053 18825 ft 370 kts 205°
2026-05-07 18:45 59.54974 10.67202 19318 ft 373 kts 205°
2026-05-07 18:46 59.52548 10.65342 19817 ft 376 kts 206°
2026-05-07 18:46 59.50097 10.63464 20302 ft 379 kts 206°
2026-05-07 18:46 59.47629 10.61576 20764 ft 382 kts 206°
2026-05-07 18:46 59.45142 10.59676 21231 ft 385 kts 206°
2026-05-07 18:47 59.42629 10.57759 21679 ft 389 kts 206°
2026-05-07 18:47 59.40098 10.55833 22125 ft 392 kts 206°
2026-05-07 18:47 59.37545 10.53893 22576 ft 395 kts 206°
2026-05-07 18:47 59.34966 10.51943 23028 ft 398 kts 206°
2026-05-07 18:48 59.32367 10.49986 23465 ft 401 kts 206°
2026-05-07 18:48 59.29750 10.48019 23848 ft 404 kts 206°
2026-05-07 18:48 59.27150 10.46065 24205 ft 407 kts 206°
2026-05-07 18:48 59.24504 10.44078 24580 ft 409 kts 206°
2026-05-07 18:49 59.21841 10.42076 24964 ft 411 kts 206°
2026-05-07 18:49 59.19167 10.40067 25334 ft 413 kts 206°
2026-05-07 18:49 59.16481 10.38053 25687 ft 415 kts 206°
2026-05-07 18:49 59.13773 10.36031 26044 ft 418 kts 206°
2026-05-07 18:50 59.11051 10.34004 26405 ft 420 kts 206°
2026-05-07 18:50 59.08315 10.31967 26765 ft 422 kts 206°
2026-05-07 18:50 59.05559 10.29917 27140 ft 424 kts 206°
2026-05-07 18:50 59.02799 10.27865 27483 ft 426 kts 206°
2026-05-07 18:51 59.00024 10.25809 27836 ft 428 kts 206°
2026-05-07 18:51 58.97237 10.23744 28179 ft 430 kts 206°
2026-05-07 18:51 58.94475 10.21701 28505 ft 432 kts 206°
2026-05-07 18:51 58.91660 10.19625 28837 ft 434 kts 206°
2026-05-07 18:52 58.88828 10.17539 29108 ft 436 kts 205°
2026-05-07 18:52 58.85989 10.15453 29423 ft 438 kts 205°
2026-05-07 18:52 58.83129 10.13357 29735 ft 439 kts 205°
2026-05-07 18:52 58.80264 10.11263 30037 ft 441 kts 205°
2026-05-07 18:53 58.77385 10.09164 30316 ft 443 kts 205°
2026-05-07 18:53 58.74494 10.07061 30569 ft 445 kts 205°
2026-05-07 18:53 58.71596 10.04957 30908 ft 444 kts 205°
2026-05-07 18:53 58.68706 10.02862 31271 ft 444 kts 205°
2026-05-07 18:54 58.65821 10.00772 31638 ft 443 kts 205°
2026-05-07 18:54 58.62978 9.98715 31960 ft 443 kts 205°
2026-05-07 18:54 58.60094 9.96628 32277 ft 443 kts 205°
2026-05-07 18:54 58.57211 9.94546 32611 ft 443 kts 205°
2026-05-07 18:55 58.54320 9.92468 32964 ft 443 kts 205°
2026-05-07 18:55 58.51441 9.90402 33311 ft 442 kts 205°
2026-05-07 18:55 58.48558 9.88328 33665 ft 442 kts 205°
2026-05-07 18:55 58.45684 9.86258 34010 ft 441 kts 205°
2026-05-07 18:56 58.42803 9.84190 34136 ft 442 kts 205°
2026-05-07 18:56 58.37049 9.80089 34149 ft 441 kts 205°
2026-05-07 18:57 58.31302 9.76016 34150 ft 441 kts 205°
2026-05-07 18:57 58.28422 9.73978 34393 ft 441 kts 204°
2026-05-07 18:57 58.25550 9.71949 34707 ft 440 kts 204°
2026-05-07 18:57 58.22679 9.69919 35002 ft 439 kts 204°
2026-05-07 18:58 58.19849 9.67918 35286 ft 439 kts 204°
2026-05-07 18:58 58.16995 9.65904 35566 ft 438 kts 204°
2026-05-07 18:58 58.14143 9.63896 35842 ft 437 kts 204°
2026-05-07 18:58 58.11290 9.61895 36059 ft 437 kts 204°
2026-05-07 18:59 58.08436 9.59893 36146 ft 436 kts 203°
2026-05-07 18:59 58.02760 9.55930 36150 ft 434 kts 203°
2026-05-07 19:00 57.97095 9.51991 36157 ft 433 kts 203°
2026-05-07 19:00 57.91436 9.48062 36150 ft 433 kts 203°
2026-05-07 19:01 57.85777 9.44134 36158 ft 433 kts 203°
2026-05-07 19:01 57.80115 9.40235 36138 ft 434 kts 202°
2026-05-07 19:02 57.74485 9.36366 36146 ft 433 kts 202°
2026-05-07 19:02 57.68816 9.32476 36153 ft 434 kts 202°
2026-05-07 19:03 57.63145 9.28616 36150 ft 434 kts 202°
2026-05-07 19:03 57.57471 9.24763 36130 ft 434 kts 202°
2026-05-07 19:04 57.51801 9.20914 36138 ft 434 kts 202°
2026-05-07 19:04 57.46116 9.17067 36139 ft 435 kts 202°
2026-05-07 19:05 57.40428 9.13234 36136 ft 435 kts 202°
2026-05-07 19:05 57.34735 9.09417 36139 ft 435 kts 202°
2026-05-07 19:06 57.29041 9.05606 36131 ft 435 kts 201°
2026-05-07 19:06 57.20525 8.99933 36135 ft 436 kts 201°
2026-05-07 19:07 57.14813 8.96144 36141 ft 436 kts 201°
2026-05-07 19:07 57.09105 8.92368 36142 ft 436 kts 201°
2026-05-07 19:08 57.03389 8.88597 36128 ft 436 kts 201°
2026-05-07 19:08 56.97670 8.84834 36147 ft 437 kts 201°
2026-05-07 19:09 56.91938 8.81083 36151 ft 437 kts 201°
2026-05-07 19:09 56.86209 8.77345 36152 ft 437 kts 201°
2026-05-07 19:10 56.80483 8.73622 36148 ft 437 kts 201°
2026-05-07 19:10 56.74751 8.69910 36148 ft 437 kts 200°
2026-05-07 19:11 56.69060 8.66226 36149 ft 437 kts 200°
2026-05-07 19:11 56.63321 8.62529 36153 ft 437 kts 200°
2026-05-07 19:12 56.57584 8.58849 36155 ft 437 kts 200°
2026-05-07 19:12 56.51836 8.55174 36149 ft 438 kts 200°
2026-05-07 19:13 56.46088 8.51500 36159 ft 438 kts 200°
2026-05-07 19:13 56.40341 8.47837 36165 ft 438 kts 200°
2026-05-07 19:14 56.34582 8.44202 36168 ft 438 kts 200°
2026-05-07 19:14 56.28866 8.40587 36139 ft 435 kts 200°
2026-05-07 19:15 56.23241 8.37029 36163 ft 430 kts 200°
2026-05-07 19:15 56.17524 8.33440 36150 ft 438 kts 199°
2026-05-07 19:16 56.11769 8.29846 36149 ft 439 kts 199°
2026-05-07 19:16 56.06970 8.26846 36155 ft 439 kts 199°
2026-05-07 19:17 56.01206 8.23253 36147 ft 439 kts 199°
2026-05-07 19:17 55.94490 8.19100 36153 ft 439 kts 199°
2026-05-07 19:18 55.89653 8.16112 36155 ft 439 kts 199°
2026-05-07 19:18 55.83874 8.12548 36157 ft 439 kts 199°
2026-05-07 19:19 55.78098 8.08997 36167 ft 439 kts 199°
2026-05-07 19:19 55.72361 8.05478 36157 ft 439 kts 199°
2026-05-07 19:20 55.66586 8.01947 36167 ft 439 kts 199°
2026-05-07 19:20 55.60803 7.98436 36164 ft 439 kts 199°
2026-05-07 19:21 55.55024 7.94934 36154 ft 439 kts 199°
2026-05-07 19:21 55.49244 7.91432 36156 ft 439 kts 199°
2026-05-07 19:22 55.43460 7.87940 36151 ft 439 kts 198°
2026-05-07 19:22 55.37678 7.84452 36157 ft 439 kts 199°
2026-05-07 19:23 55.31888 7.80991 36151 ft 439 kts 198°
2026-05-07 19:23 55.26136 7.77557 36153 ft 439 kts 198°
2026-05-07 19:24 55.20344 7.74111 36151 ft 439 kts 198°
2026-05-07 19:24 55.14561 7.70669 36156 ft 439 kts 198°
2026-05-07 19:25 55.08765 7.67232 36158 ft 439 kts 198°
2026-05-07 19:25 55.02977 7.63802 36164 ft 439 kts 198°
2026-05-07 19:26 54.97182 7.60435 36156 ft 439 kts 197°
2026-05-07 19:26 54.91376 7.57295 36150 ft 439 kts 196°
2026-05-07 19:27 54.85534 7.54197 36145 ft 439 kts 196°
2026-05-07 19:27 54.79700 7.51077 36144 ft 439 kts 196°
2026-05-07 19:28 54.73865 7.47935 36143 ft 439 kts 196°
2026-05-07 19:28 54.68033 7.44801 36142 ft 439 kts 196°
2026-05-07 19:29 54.62237 7.41712 36138 ft 439 kts 196°
2026-05-07 19:29 54.56398 7.38597 36136 ft 439 kts 196°
2026-05-07 19:30 54.50548 7.35495 36132 ft 439 kts 195°
2026-05-07 19:30 54.44705 7.32397 36138 ft 439 kts 196°
2026-05-07 19:31 54.38863 7.29312 36141 ft 439 kts 196°
2026-05-07 19:31 54.33017 7.26238 36134 ft 439 kts 196°
2026-05-07 19:32 54.27168 7.23165 36140 ft 439 kts 195°
2026-05-07 19:32 54.21313 7.20097 36134 ft 439 kts 196°
2026-05-07 19:33 54.15465 7.17038 36140 ft 439 kts 195°
2026-05-07 19:33 54.09623 7.13987 36142 ft 439 kts 195°
2026-05-07 19:34 54.03808 7.10972 36136 ft 439 kts 195°
2026-05-07 19:34 53.97967 7.07960 36143 ft 438 kts 195°
2026-05-07 19:35 53.92133 7.04954 36140 ft 438 kts 196°
2026-05-07 19:35 53.86305 7.01945 36139 ft 437 kts 195°
2026-05-07 19:36 53.80486 6.98952 36130 ft 437 kts 196°
2026-05-07 19:36 53.74667 6.95972 36143 ft 436 kts 196°
2026-05-07 19:37 53.68860 6.93022 36145 ft 435 kts 196°
2026-05-07 19:37 53.63067 6.90083 36129 ft 435 kts 196°
2026-05-07 19:38 53.57268 6.87141 36119 ft 436 kts 196°
2026-05-07 19:38 53.51488 6.84219 35825 ft 438 kts 197°
2026-05-07 19:39 53.48497 6.82713 34828 ft 447 kts 197°
2026-05-07 19:39 53.45569 6.81242 34393 ft 442 kts 196°
2026-05-07 19:39 53.42656 6.79777 34205 ft 435 kts 196°
2026-05-07 19:39 53.39763 6.78320 34100 ft 433 kts 196°
2026-05-07 19:40 53.33976 6.75413 34117 ft 434 kts 196°
2026-05-07 19:40 53.28193 6.72526 34114 ft 433 kts 196°
2026-05-07 19:41 53.22410 6.69654 34114 ft 434 kts 196°
2026-05-07 19:41 53.16664 6.66617 34107 ft 433 kts 203°
2026-05-07 19:42 53.11442 6.61567 34111 ft 435 kts 211°
2026-05-07 19:42 53.06276 6.56282 34111 ft 436 kts 211°
2026-05-07 19:43 53.01125 6.51042 34025 ft 433 kts 211°
2026-05-07 19:43 52.98532 6.48411 32920 ft 442 kts 211°
2026-05-07 19:43 52.95927 6.45767 32046 ft 446 kts 211°
2026-05-07 19:44 52.93287 6.43089 31390 ft 444 kts 211°
2026-05-07 19:44 52.90680 6.40453 30835 ft 440 kts 211°
2026-05-07 19:44 52.88079 6.37828 29863 ft 430 kts 211°
2026-05-07 19:44 52.85548 6.35255 28551 ft 422 kts 214°
2026-05-07 19:45 52.83317 6.32179 27344 ft 414 kts 227°
2026-05-07 19:45 52.81619 6.28478 26539 ft 398 kts 236°
2026-05-07 19:45 52.80089 6.24773 26267 ft 387 kts 235°
2026-05-07 19:45 52.78557 6.21131 26095 ft 384 kts 235°
2026-05-07 19:46 52.77025 6.17526 26093 ft 383 kts 234°
2026-05-07 19:46 52.75487 6.13923 26098 ft 384 kts 234°
2026-05-07 19:46 52.73952 6.10320 26098 ft 383 kts 234°
2026-05-07 19:46 52.72419 6.06721 26071 ft 384 kts 234°
2026-05-07 19:47 52.70898 6.03144 25240 ft 391 kts 235°
2026-05-07 19:47 52.69324 5.99437 24368 ft 396 kts 234°
2026-05-07 19:47 52.67744 5.95715 23820 ft 394 kts 234°
2026-05-07 19:47 52.66188 5.92058 22840 ft 386 kts 234°
2026-05-07 19:48 52.64632 5.88408 22020 ft 389 kts 234°
2026-05-07 19:48 52.63087 5.84786 21545 ft 384 kts 234°
2026-05-07 19:48 52.61558 5.81203 21044 ft 380 kts 234°
2026-05-07 19:48 52.60042 5.77650 20514 ft 378 kts 234°
2026-05-07 19:49 52.58532 5.74118 20004 ft 375 kts 234°
2026-05-07 19:49 52.57036 5.70623 19535 ft 372 kts 234°
2026-05-07 19:49 52.55546 5.67155 19045 ft 370 kts 234°
2026-05-07 19:49 52.54060 5.63710 18562 ft 368 kts 234°
2026-05-07 19:50 52.52601 5.60333 18383 ft 357 kts 234°
2026-05-07 19:50 52.51247 5.57004 18252 ft 344 kts 242°
2026-05-07 19:50 52.50371 5.53421 18107 ft 333 kts 250°
2026-05-07 19:50 52.49613 5.49882 17865 ft 325 kts 250°
2026-05-07 19:51 52.48874 5.46445 17526 ft 321 kts 250°
2026-05-07 19:51 52.48121 5.42959 17140 ft 319 kts 250°
2026-05-07 19:51 52.47391 5.39581 16755 ft 316 kts 250°
2026-05-07 19:51 52.46661 5.36205 16162 ft 313 kts 250°
2026-05-07 19:52 52.45937 5.32852 15542 ft 311 kts 250°
2026-05-07 19:52 52.45216 5.29521 14955 ft 308 kts 250°
2026-05-07 19:52 52.44501 5.26229 14384 ft 305 kts 250°
2026-05-07 19:52 52.43790 5.22970 13820 ft 301 kts 250°
2026-05-07 19:53 52.43085 5.19746 13167 ft 302 kts 250°
2026-05-07 19:53 52.42380 5.16527 12791 ft 299 kts 250°
2026-05-07 19:53 52.41680 5.13321 12394 ft 298 kts 250°
2026-05-07 19:53 52.40986 5.10139 12025 ft 296 kts 250°
2026-05-07 19:54 52.40296 5.06981 11666 ft 293 kts 250°
2026-05-07 19:54 52.39610 5.03856 11309 ft 291 kts 250°
2026-05-07 19:54 52.38931 5.00781 10912 ft 290 kts 250°
2026-05-07 19:54 52.38234 4.97628 10522 ft 290 kts 250°
2026-05-07 19:55 52.37548 4.94523 10154 ft 289 kts 249°
2026-05-07 19:55 52.36862 4.91430 9750 ft 289 kts 249°
2026-05-07 19:55 52.36177 4.88344 9356 ft 288 kts 249°
2026-05-07 19:55 52.35496 4.85276 8983 ft 286 kts 249°
2026-05-07 19:56 52.34831 4.82276 8696 ft 281 kts 249°
2026-05-07 19:56 52.34176 4.79323 8559 ft 271 kts 249°
2026-05-07 19:56 52.33582 4.76454 8423 ft 262 kts 257°
2026-05-07 19:56 52.33466 4.73550 8278 ft 253 kts 275°
2026-05-07 19:57 52.33819 4.70743 8011 ft 250 kts 282°
2026-05-07 19:57 52.34215 4.67978 7714 ft 249 kts 281°
2026-05-07 19:57 52.34452 4.65205 7415 ft 245 kts 266°
2026-05-07 19:57 52.34151 4.62503 7112 ft 241 kts 248°
2026-05-07 19:58 52.33369 4.60104 6780 ft 239 kts 236°
2026-05-07 19:58 52.32476 4.57818 6480 ft 238 kts 237°
2026-05-07 19:58 52.31593 4.55531 6147 ft 237 kts 237°
2026-05-07 19:58 52.30714 4.53248 5811 ft 237 kts 237°
2026-05-07 19:59 52.29849 4.51002 5507 ft 236 kts 237°
2026-05-07 19:59 52.28974 4.48739 5194 ft 235 kts 236°
2026-05-07 19:59 52.28100 4.46485 4897 ft 234 kts 236°
2026-05-07 19:59 52.27076 4.44452 4553 ft 232 kts 213°
2026-05-07 20:00 52.25599 4.43551 4213 ft 228 kts 181°
2026-05-07 20:00 52.24064 4.44066 3862 ft 228 kts 151°
2026-05-07 20:00 52.22720 4.45467 3459 ft 232 kts 140°
2026-05-07 20:00 52.21669 4.47438 3158 ft 230 kts 120°
2026-05-07 20:01 52.21105 4.49839 2937 ft 226 kts 101°
2026-05-07 20:01 52.21074 4.52347 2696 ft 216 kts 80°
2026-05-07 20:01 52.21554 4.54568 2491 ft 202 kts 62°
2026-05-07 20:01 52.22247 4.56461 2363 ft 190 kts 59°
2026-05-07 20:02 52.22935 4.58237 2196 ft 178 kts 59°
2026-05-07 20:02 52.23568 4.59872 1981 ft 165 kts 59°
2026-05-07 20:02 52.24165 4.61416 1761 ft 158 kts 60°
2026-05-07 20:02 52.24740 4.62904 1603 ft 151 kts 59°
2026-05-07 20:03 52.25300 4.64342 1371 ft 150 kts 59°
2026-05-07 20:03 52.25857 4.65763 1113 ft 143 kts 58°
2026-05-07 20:03 52.26371 4.67058 936 ft 133 kts 58°
2026-05-07 20:03 52.26857 4.68333 773 ft 134 kts 58°
2026-05-07 20:04 52.27350 4.69652 638 ft 138 kts 58°
2026-05-07 20:04 52.27851 4.70971 433 ft 136 kts 57°
2026-05-07 20:04 52.28354 4.72283 247 ft 136 kts 57°
2026-05-07 20:04 52.28855 4.73583 65 ft 134 kts 56°
2026-05-07 20:05 52.29337 4.74811 1 ft 120 kts 60°
2026-05-07 20:05 52.29682 4.75732 -4 ft 68 kts 57°
2026-05-07 20:05 52.29866 4.76209 -6 ft 41 kts 58°
2026-05-07 20:05 52.30025 4.76545 -3 ft 28 kts 37°
2026-05-07 20:06 52.30166 4.76660 -2 ft 15 kts 26°
2026-05-07 20:06 52.30214 4.76699 -2 ft 2 kts 27°
2026-05-07 20:06 52.30222 4.76705 -2 ft 2 kts 26°
2026-05-07 20:06 52.30269 4.76746 -3 ft 16 kts 35°
2026-05-07 20:07 52.30343 4.76902 -3 ft 18 kts 57°
2026-05-07 20:07 52.30408 4.77073 -3 ft 18 kts 58°
2026-05-07 20:07 52.30471 4.77238 -3 ft 18 kts 57°
2026-05-07 20:07 52.30538 4.77411 -3 ft 18 kts 58°
2026-05-07 20:08 52.30620 4.77551 -2 ft 17 kts 28°
2026-05-07 20:08 52.30733 4.77595 -2 ft 17 kts
2026-05-07 20:08 52.30830 4.77541 -2 ft 15 kts 291°
2026-05-07 20:08 52.30838 4.77377 -2 ft 13 kts 272°
2026-05-07 20:09 52.30844 4.77223 -2 ft 14 kts 274°
2026-05-07 20:09 52.30849 4.77138 -2 ft 4 kts 275°
2026-05-07 20:09 52.30873 4.77112 -2 ft 4 kts 350°
2026-05-07 20:10 52.30889 4.77111 -2 ft 0 kts 359°
2026-05-07 20:10 52.30893 4.77111 -2 ft 0 kts 360°